Location: ???????
(54.6339°N, 39.4245°E)
Time: 04:21:43
(UTC+00:00)

Cosmos 2221 - Pass Details

Date: 19 May 2025
Orbit: 572 x 593 km, 82.5° (Epoch: 19 June)

Event Time Altitude Azimuth Distance (km) Brightness Sun altitude
Exits shadow 20:01:14 - 212° (SSW) 1,937 4.7 -13.6°
Reaches altitude 10° 20:01:20 10° 212° (SSW) 1,893 4.7 -13.6°
Maximum altitude 20:05:23 47° 287° (WNW) 771 3.3 -13.8°
Drops below altitude 10° 20:09:26 10° 2° (N) 1,898 6.3 -13.9°
Sets 20:11:42 0° 9° (N) 2,800 7.2 -14.0°
